Back to catalog

SL-12 R/B(2)

AliveGEO
NORAD 18446·ROCKET BODY·🇷🇺 Russia

Launched Oct 28, 1987 from Baikonur Cosmodrome

Loading…

TLE

FreshSource: Space-Track

Epoch: Sep 14, 2026, 15:57 UTC

1 18446U 87091D   26257.66471475 -.00000243  00000-0  00000-0 0  9990
2 18446  10.6644 325.1626 0023490 268.3287  91.7824  1.00149045130891

Track SL-12 R/B(2) in real time with AllMySat

Download on the App Store